Regional Weather Roundup
Issued by NWS Nashville, TN

Home | Current Version | Previous Version | Text Only | Print | Product List | Glossary On
Versions: 1 2 3 4 5 6 7 8 9 10 11 12 13 14 15 16 17 18 19 20 21 22 23 24 25 26 27 28 29 30 31 32 33 34 35 36 37 38 39 40 41 42 43 44 45 46 47 48 49 50
000
ASUS44 KOHX 291215
RWROHX
MIDDLE TENNESSEE HOURLY WEATHER ROUNDUP
NATIONAL WEATHER SERVICE NASHVILLE TN
600 AM CST MON DEC 29 2014

NOTE: "FAIR" INDICATES FEW OR NO CLOUDS BELOW 12,000 FEET WITH
NO SIGNIFICANT WEATHER AND/OR OBSTRUCTIONS TO VISIBILITY.

* THESE REPORTS ARE NOT UNDER NWS QUALITY CONTROL AND MAY NOT
  REPORT WEATHER SUCH AS PRECIPITATION AND FOG.


TNZ005>011-023>034-057-059-062>066-078-080-291300
...NORTHERN MIDDLE TENNESSEE...

CITY           SKY/WX    TMP DP  RH WIND       PRES   REMARKS
CLARKSVILLE    CLOUDY    35  32  88 N8        30.19R WCI  29
CROSSVILLE     CLOUDY    42  39  89 N3        30.08R FOG
NASHVILLE      FOG       37  36  93 N6        30.16R VSB 1   WCI  33
SMYRNA         CLOUDY    38  36  92 N8        30.17R WCI  32
SPARTA         CLOUDY    37  37 100 NE5       30.09F WCI  34
$$
TNZ056-058-060-061-075>077-079-093>097-291300
...SOUTHERN MIDDLE TENNESSEE...

CITY           SKY/WX    TMP DP  RH WIND       PRES   REMARKS
COLUMBIA       CLOUDY   N/A N/A N/A N6        30.12R
MCMINNVILLE    CLOUDY    39  39 100 CALM      30.10S
SHELBYVILLE    CLOUDY    39  37  93 N5        30.13R
TULLAHOMA      CLOUDY    37  37 100 N3        30.10S
WINCHESTER     CLOUDY    39  39 100 N3        30.10S
$$


...KEY TO REMARKS...
VSB - VISIBILITY IN MILES
WCI - WIND CHILL INDEX
HX  - HEAT INDEX




USA.gov is the U.S. government's official web portal to all federal, state and local government web resources and services.